Eastsound, WA
on Monday, December 3, 2012

Monday
Previous Day Next Day
Daily Summary
 ActualAverage (KBLI)Record (KBLI)
Temperature
Mean Temperature °F 39°F  
Max Temperature 53°F 46°F 59°F (1989)
Min Temperature 41°F 33°F 20°F (1994)
Degree Days
Heating Degree Days 18 26  
Month to date heating degree days 76  
Cooling Degree Days 0 0  
Month to date cooling degree days 0  
Year to date cooling degree days 42  
Moisture
Dew Point 43°F   
Average Humidity 85    
Maximum Humidity 100    
Minimum Humidity 62    
Precipitation
Precipitation 0.16 in 0.17 in 1.52 in (1982)
Month to date precipitation 0.51  
Year to date precipitation 32.12  
Wind
Wind Speed 7 mph   
Max Wind Speed 16 mph   
Max Gust Speed 36 mph   
Visibility 9 miles   
Events Rain   

Key: T is trace of precipitation, MM is missing value
Source: NWS Daily Summary
Time(PST)TemperatureDew PointHumidity Pressure Visibility Wind DirectionWind SpeedGust SpeedPrecipitationEvents Conditions
12:15 AM 44.6°F 41.0°F 87% 29.68 in 10.0 miles South 8.1 mph - N/A   Clear
12:35 AM 44.6°F 42.8°F 93% 29.68 in 10.0 miles South 3.5 mph - N/A   Clear
12:55 AM 44.6°F 42.8°F 93% 29.69 in 10.0 miles South 3.5 mph - N/A   Clear
1:15 AM 44.6°F 41.0°F 87% 29.70 in 10.0 miles Calm Calm - N/A   Clear
1:35 AM 44.6°F 42.8°F 93% 29.71 in 10.0 miles South 5.8 mph - N/A   Scattered Clouds
1:55 AM 44.6°F 42.8°F 93% 29.70 in 10.0 miles SSW 6.9 mph - N/A   Partly Cloudy
2:15 AM 46.4°F 42.8°F 87% 29.70 in 10.0 miles South 8.1 mph 20.7 mph N/A   Partly Cloudy
2:35 AM 46.4°F 44.6°F 93% 29.73 in 10.0 miles West 8.1 mph - N/A   Mostly Cloudy
2:55 AM 46.4°F 44.6°F 93% 29.72 in 6.0 miles Calm Calm - 0.02 in Rain Light Rain
3:15 AM 46.4°F 44.6°F 93% 29.73 in 4.0 miles SW 5.8 mph - N/A Rain Rain
3:35 AM 46.4°F 44.6°F 93% 29.76 in 4.0 miles SW 9.2 mph - 0.02 in Rain Rain
3:55 AM 44.6°F 44.6°F 100% 29.77 in 3.0 miles West 4.6 mph - 0.09 in Rain Rain
4:15 AM 44.6°F 42.8°F 93% 29.77 in 5.0 miles SW 3.5 mph - 0.02 in Rain Rain
4:35 AM 44.6°F 42.8°F 93% 29.79 in 6.0 miles South 8.1 mph - 0.02 in Rain Light Rain
4:55 AM 44.6°F 41.0°F 87% 29.80 in 4.0 miles South 8.1 mph - 0.05 in Rain Heavy Rain
5:15 AM 42.8°F 41.0°F 93% 29.80 in 6.0 miles South 6.9 mph - N/A Rain Light Rain
5:55 AM 42.8°F 41.0°F 93% 29.81 in 10.0 miles South 8.1 mph - N/A   Scattered Clouds
6:15 AM 42.8°F 41.0°F 93% 29.82 in 10.0 miles SSW 10.4 mph - N/A   Partly Cloudy
6:55 AM 44.6°F 41.0°F 87% 29.83 in 10.0 miles South 5.8 mph - N/A   Clear
7:15 AM 42.8°F 41.0°F 93% 29.85 in 10.0 miles Calm Calm - N/A   Clear
7:35 AM 41.0°F 39.2°F 93% 29.86 in 10.0 miles South 3.5 mph - N/A   Partly Cloudy
7:55 AM 41.0°F 41.0°F 100% 29.88 in 10.0 miles Calm Calm - N/A   Scattered Clouds
8:15 AM 41.0°F 41.0°F 100% 29.88 in 10.0 miles North - - N/A   Scattered Clouds
8:35 AM 41.0°F 41.0°F 100% 29.89 in 10.0 miles Calm Calm - N/A   Scattered Clouds
8:55 AM 42.8°F 41.0°F 93% 29.90 in 10.0 miles Calm Calm - N/A   Scattered Clouds
9:15 AM 44.6°F 41.0°F 87% 29.91 in 10.0 miles South 4.6 mph - N/A   Mostly Cloudy
9:35 AM 44.6°F 42.8°F 93% 29.92 in 8.0 miles South 4.6 mph - N/A   Mostly Cloudy
9:55 AM 44.6°F 42.8°F 93% 29.93 in 10.0 miles Calm Calm - N/A   Mostly Cloudy
10:15 AM 46.4°F 42.8°F 87% 29.94 in 9.0 miles South 6.9 mph - N/A   Mostly Cloudy
10:35 AM 46.4°F 44.6°F 93% 29.95 in 10.0 miles South 6.9 mph - N/A   Partly Cloudy
10:55 AM 46.4°F 42.8°F 87% 29.96 in 10.0 miles South 8.1 mph - N/A   Scattered Clouds
11:15 AM 48.2°F 44.6°F 87% 29.96 in 10.0 miles South 8.1 mph - N/A   Mostly Cloudy
11:35 AM 48.2°F 42.8°F 82% 29.96 in 10.0 miles South 8.1 mph 16.1 mph N/A   Partly Cloudy
11:55 AM 48.2°F 42.8°F 82% 29.95 in 10.0 miles South 6.9 mph - N/A   Scattered Clouds
12:15 PM 48.2°F 42.8°F 82% 29.95 in 10.0 miles South 4.6 mph - N/A   Partly Cloudy
12:35 PM 48.2°F 42.8°F 82% 29.95 in 10.0 miles South 9.2 mph - N/A   Scattered Clouds
12:55 PM 48.2°F 42.8°F 82% 29.94 in 10.0 miles South 9.2 mph - N/A   Partly Cloudy
1:15 PM 48.2°F 42.8°F 82% 29.92 in 10.0 miles South 8.1 mph - N/A   Partly Cloudy
1:35 PM 48.2°F 42.8°F 82% 29.92 in 10.0 miles South 10.4 mph 17.3 mph N/A   Scattered Clouds
1:55 PM 48.2°F 42.8°F 82% 29.91 in 10.0 miles South 6.9 mph 18.4 mph N/A   Scattered Clouds
2:15 PM 48.2°F 42.8°F 82% 29.90 in 10.0 miles South 9.2 mph 17.3 mph N/A   Scattered Clouds
2:35 PM 48.2°F 42.8°F 82% 29.89 in 10.0 miles South 9.2 mph 16.1 mph N/A   Mostly Cloudy
2:55 PM 48.2°F 42.8°F 82% 29.89 in 10.0 miles South 9.2 mph 18.4 mph N/A   Mostly Cloudy
3:15 PM 48.2°F 42.8°F 82% 29.88 in 10.0 miles South 8.1 mph - N/A   Scattered Clouds
3:35 PM 48.2°F 42.8°F 82% 29.87 in 10.0 miles South 9.2 mph 19.6 mph N/A   Partly Cloudy
3:55 PM 48.2°F 42.8°F 82% 29.86 in 10.0 miles South 10.4 mph 20.7 mph N/A   Clear
4:15 PM 48.2°F 41.0°F 76% 29.86 in 10.0 miles South 11.5 mph 18.4 mph N/A   Clear
4:35 PM 48.2°F 41.0°F 76% 29.85 in 10.0 miles South 12.7 mph 21.9 mph N/A   Partly Cloudy
4:55 PM 50.0°F 42.8°F 76% 29.84 in 10.0 miles South 11.5 mph 18.4 mph N/A   Scattered Clouds
5:15 PM 50.0°F 42.8°F 76% 29.82 in 10.0 miles South 13.8 mph 20.7 mph N/A   Scattered Clouds
5:35 PM 50.0°F 42.8°F 76% 29.82 in 10.0 miles South 10.4 mph 20.7 mph N/A   Partly Cloudy
5:55 PM 50.0°F 42.8°F 76% 29.81 in 10.0 miles South 12.7 mph 25.3 mph N/A   Clear
6:15 PM 48.2°F 42.8°F 82% 29.81 in 10.0 miles South 11.5 mph 24.2 mph N/A   Partly Cloudy
6:35 PM 48.2°F 44.6°F 87% 29.80 in 10.0 miles South 6.9 mph 17.3 mph N/A   Mostly Cloudy
6:55 PM 48.2°F 44.6°F 87% 29.79 in 10.0 miles South 8.1 mph 18.4 mph N/A   Mostly Cloudy
7:15 PM 50.0°F 44.6°F 82% 29.78 in 10.0 miles SSE 9.2 mph 17.3 mph N/A   Overcast
7:35 PM 50.0°F 44.6°F 82% 29.78 in 10.0 miles South 9.2 mph 20.7 mph N/A   Overcast
7:55 PM 50.0°F 44.6°F 82% 29.77 in 10.0 miles South 11.5 mph 20.7 mph N/A   Overcast
8:15 PM 50.0°F 44.6°F 82% 29.76 in 10.0 miles SSE 12.7 mph 23.0 mph N/A   Overcast
8:35 PM 50.0°F 44.6°F 82% 29.74 in 10.0 miles SSE 8.1 mph 17.3 mph N/A   Overcast
8:55 PM 50.0°F 44.6°F 82% 29.73 in 10.0 miles South 11.5 mph 20.7 mph N/A   Overcast
9:15 PM 50.0°F 44.6°F 82% 29.70 in 10.0 miles SSE 10.4 mph 24.2 mph N/A   Overcast
9:35 PM 50.0°F 44.6°F 82% 29.68 in 10.0 miles SSE 9.2 mph 24.2 mph N/A   Mostly Cloudy
9:55 PM 50.0°F 44.6°F 82% 29.66 in 10.0 miles South 10.4 mph 28.8 mph N/A   Scattered Clouds
10:15 PM 50.0°F 44.6°F 82% 29.64 in 10.0 miles SSE 11.5 mph 24.2 mph N/A   Partly Cloudy
10:35 PM 51.8°F 42.8°F 71% 29.61 in 10.0 miles SSE 10.4 mph 20.7 mph N/A   Clear
10:55 PM 51.8°F 41.0°F 67% 29.59 in 10.0 miles SSE 16.1 mph 35.7 mph N/A   Clear
11:15 PM 53.6°F 41.0°F 62% 29.57 in 10.0 miles SSE 15.0 mph 34.5 mph N/A   Clear
11:35 PM 53.6°F 41.0°F 62% 29.55 in 10.0 miles SSE 13.8 mph 33.4 mph N/A   Clear
11:55 PM 53.6°F 41.0°F 62% 29.54 in 10.0 miles SSE 12.7 mph 24.2 mph N/A   Clear
Moon Phase
Dec. 03 Dec. 06 Dec. 13 Dec. 20 Dec. 28
Sunrise:07:46 AM (PST) Moon Rise:09:23 PM (PST)12/3
Sunset:04:16 PM (PST) Moon Set:10:59 AM (PST)12/3

Copyright © 2014 The Weather Underground, Inc.